This is the latest recevied weather packets stored in our database for station/object HS3MXC-2. If no packets are shown the sender has not sent any weather packets the latest 10 day(s).
| Time | Temp. | Humidity | Pressure | Rain* | Wind** | Luminosity | Snow |
|---|---|---|---|---|---|---|---|
| 1788151354 | 81° F | 53% | 745.7 mmHg | - | - | - | - |
| 1788150153 | 81° F | 55% | 745.9 mmHg | - | - | - | - |
| 1788149854 | 81° F | 56% | 746 mmHg | - | - | - | - |
| 1788149253 | 81° F | 56% | 746 mmHg | - | - | - | - |
| 1788148956 | 81° F | 56% | 746 mmHg | - | - | - | - |
| 1788147754 | 80° F | 56% | 746.1 mmHg | - | - | - | - |
| 1788147453 | 80° F | 56% | 746.1 mmHg | - | - | - | - |
| 1788147158 | 80° F | 57% | 746.2 mmHg | - | - | - | - |
| 1788146855 | 80° F | 57% | 746.2 mmHg | - | - | - | - |
| 1788144753 | 80° F | 61% | 746.3 mmHg | - | - | - | - |
| 1788144454 | 80° F | 59% | 746.3 mmHg | - | - | - | - |
| 1788144154 | 80° F | 60% | 746.2 mmHg | - | - | - | - |
| 1788143856 | 80° F | 62% | 746.2 mmHg | - | - | - | - |
| 1788142955 | 80° F | 60% | 746.2 mmHg | - | - | - | - |
| 1788142656 | 80° F | 63% | 746.2 mmHg | - | - | - | - |
| 1788142053 | 80° F | 63% | 746.2 mmHg | - | - | - | - |
| 1788141754 | 80° F | 62% | 746.2 mmHg | - | - | - | - |
| 1788140860 | 81° F | 76% | 746.2 mmHg | - | - | - | - |
| 1788140560 | 81° F | 78% | 746.2 mmHg | - | - | - | - |
| 1788138755 | 81° F | 79% | 746.2 mmHg | - | - | - | - |
| 1788135752 | 81° F | 79% | 745.9 mmHg | - | - | - | - |
| 1788132752 | 81° F | 76% | 745.7 mmHg | - | - | - | - |
| 1788131556 | 81° F | 76% | 745.6 mmHg | - | - | - | - |
| 1788131252 | 81° F | 76% | 745.6 mmHg | - | - | - | - |
| 1788130957 | 81° F | 76% | 745.6 mmHg | - | - | - | - |
* Rain since midnight (hover to see other rain measurements)
** Current wind speed in m/s (hover to see current wind gust speed)